M I D A S
Marine Information and Data Acquisition System
Tripno 1767 of the Zeeleeuw from 2009-08-10 07:11:24 to 2009-08-11 11:29:10
Back to CruiseResearch ActivitiesStationsMapUnderway DataData graphs

EquipmentUnitsComments
TimeDGPSUTC
LatitudeDGPSDM.mWGS84
LongitudeDGPSDM.mWGS84
SpeedMeteo Stationm/sRelative wind speed
DirectionMeteo StationdegRelative wind direction
TemperatureMeteo Stationdeg CelciusAir temperature
PressureMeteo StationPaAtmospheric pressure
HumidityMeteo Station%Relative humidity
Missing or incorrect values are displayed as -999
Metereological data collected by the RV Zeeleeuw from 2009-08-10 07:03:28 to 2009-08-11 11:38:34
                                                                                    Next 1000 lines
Time Latitude Longitude Speed Direction Temperature Pressure Humidity
2009-08-10 07:03:40 51°13.664 2°55.961 -999 -999 -999 -999 -999
2009-08-10 07:03:50 51°13.663 2°55.96 -999 -999 -999 -999 -999
2009-08-10 07:04:00 51°13.663 2°55.96 -999 -999 -999 -999 -999
2009-08-10 07:04:10 51°13.663 2°55.96 -999 -999 -999 -999 -999
2009-08-10 07:04:20 51°13.663 2°55.961 -999 -999 -999 -999 -999
2009-08-10 07:04:30 51°13.663 2°55.961 -999 -999 -999 -999 -999
2009-08-10 07:04:40 51°13.663 2°55.961 -999 -999 -999 -999 -999
2009-08-10 07:04:50 51°13.662 2°55.96 -999 -999 -999 -999 -999
2009-08-10 07:05:00 51°13.662 2°55.96 -999 -999 -999 -999 -999
2009-08-10 07:05:10 51°13.662 2°55.961 -999 -999 -999 -999 -999
2009-08-10 07:05:20 51°13.663 2°55.961 -999 -999 -999 -999 -999
2009-08-10 07:05:30 51°13.667 2°55.962 -999 -999 -999 -999 -999
2009-08-10 07:05:40 51°13.667 2°55.962 -999 -999 -999 -999 -999
2009-08-10 07:05:50 51°13.664 2°55.961 -999 -999 -999 -999 -999
2009-08-10 07:06:00 51°13.665 2°55.961 -999 -999 -999 -999 -999
2009-08-10 07:06:10 51°13.663 2°55.96 -999 -999 -999 -999 -999
2009-08-10 07:06:20 51°13.663 2°55.96 -999 -999 -999 -999 -999
2009-08-10 07:06:30 51°13.663 2°55.96 -999 -999 -999 -999 -999
2009-08-10 07:06:40 51°13.663 2°55.96 -999 -999 -999 -999 -999
2009-08-10 07:06:50 51°13.663 2°55.96 -999 -999 -999 -999 -999
2009-08-10 07:07:00 51°13.663 2°55.96 -999 -999 -999 -999 -999
2009-08-10 07:07:10 51°13.663 2°55.96 -999 -999 -999 -999 -999
2009-08-10 07:07:20 51°13.663 2°55.96 -999 -999 -999 -999 -999
2009-08-10 07:07:30 51°13.663 2°55.96 -999 -999 -999 -999 -999
2009-08-10 07:07:40 51°13.663 2°55.96 -999 -999 -999 -999 -999
2009-08-10 07:07:50 51°13.664 2°55.96 -999 -999 -999 -999 -999
2009-08-10 07:08:00 51°13.663 2°55.96 -999 -999 -999 -999 -999
2009-08-10 07:08:10 51°13.664 2°55.96 -999 -999 -999 -999 -999
2009-08-10 07:08:20 51°13.664 2°55.96 -999 -999 -999 -999 -999
2009-08-10 07:08:30 51°13.664 2°55.96 -999 -999 -999 -999 -999
2009-08-10 07:08:40 51°13.664 2°55.96 -999 -999 -999 -999 -999
2009-08-10 07:08:50 51°13.664 2°55.96 -999 -999 -999 -999 -999
2009-08-10 07:09:00 51°13.663 2°55.96 -999 -999 -999 -999 -999
2009-08-10 07:09:10 51°13.664 2°55.96 -999 -999 -999 -999 -999
2009-08-10 07:09:20 51°13.664 2°55.96 -999 -999 -999 -999 -999
2009-08-10 07:09:30 51°13.664 2°55.96 -999 -999 -999 -999 -999
2009-08-10 07:09:40 51°13.664 2°55.96 -999 -999 -999 -999 -999
2009-08-10 07:09:50 51°13.664 2°55.96 -999 -999 -999 -999 -999
2009-08-10 07:10:00 51°13.663 2°55.96 -999 -999 -999 -999 -999
2009-08-10 07:10:10 51°13.664 2°55.96 -999 -999 -999 -999 -999
2009-08-10 07:10:20 51°13.664 2°55.961 -999 -999 -999 -999 -999
2009-08-10 07:10:30 51°13.665 2°55.961 -999 -999 -999 -999 -999
2009-08-10 07:10:40 51°13.666 2°55.962 -999 -999 -999 -999 -999
2009-08-10 07:10:50 51°13.664 2°55.961 -999 -999 -999 -999 -999
2009-08-10 07:11:00 51°13.662 2°55.96 -999 -999 -999 -999 -999
2009-08-10 07:11:10 51°13.662 2°55.96 -999 -999 -999 -999 -999
2009-08-10 07:11:20 51°13.661 2°55.96 -999 -999 -999 -999 -999
2009-08-10 07:11:30 51°13.661 2°55.96 -999 -999 -999 -999 -999
2009-08-10 07:11:40 51°13.661 2°55.96 -999 -999 -999 -999 -999
2009-08-10 07:11:50 51°13.661 2°55.96 -999 -999 -999 -999 -999
2009-08-10 07:12:00 51°13.661 2°55.96 -999 -999 -999 -999 -999
2009-08-10 07:12:10 51°13.66 2°55.959 -999 -999 -999 -999 -999
2009-08-10 07:12:20 51°13.66 2°55.959 -999 -999 -999 -999 -999
2009-08-10 07:12:30 51°13.66 2°55.96 -999 -999 -999 -999 -999
2009-08-10 07:12:40 51°13.661 2°55.96 -999 -999 -999 -999 -999
2009-08-10 07:12:50 51°13.66 2°55.96 -999 -999 -999 -999 -999
2009-08-10 07:13:00 51°13.659 2°55.961 -999 -999 -999 -999 -999
2009-08-10 07:13:10 51°13.659 2°55.961 -999 -999 -999 -999 -999
2009-08-10 07:13:20 51°13.659 2°55.961 -999 -999 -999 -999 -999
2009-08-10 07:13:30 51°13.659 2°55.961 -999 -999 -999 -999 -999
2009-08-10 07:13:40 51°13.659 2°55.96 -999 -999 -999 -999 -999
2009-08-10 07:13:50 51°13.659 2°55.96 -999 -999 -999 -999 -999
2009-08-10 07:14:00 51°13.663 2°55.961 -999 -999 -999 -999 -999
2009-08-10 07:14:10 51°13.663 2°55.96 -999 -999 -999 -999 -999
2009-08-10 07:14:20 51°13.662 2°55.96 -999 -999 -999 -999 -999
2009-08-10 07:14:30 51°13.661 2°55.96 -999 -999 -999 -999 -999
2009-08-10 07:14:40 51°13.661 2°55.96 -999 -999 -999 -999 -999
2009-08-10 07:14:50 51°13.661 2°55.96 -999 -999 -999 -999 -999
2009-08-10 07:15:00 51°13.662 2°55.96 -999 -999 -999 -999 -999
2009-08-10 07:15:10 51°13.66 2°55.96 -999 -999 -999 -999 -999
2009-08-10 07:15:20 51°13.661 2°55.96 -999 -999 -999 -999 -999
2009-08-10 07:15:30 51°13.661 2°55.96 -999 -999 -999 -999 -999
2009-08-10 07:15:40 51°13.66 2°55.959 -999 -999 -999 -999 -999
2009-08-10 07:15:50 51°13.66 2°55.959 -999 -999 -999 -999 -999
2009-08-10 07:16:00 51°13.661 2°55.957 -999 -999 -999 -999 -999
2009-08-10 07:16:10 51°13.662 2°55.952 -999 -999 -999 -999 -999
2009-08-10 07:16:20 51°13.664 2°55.944 -999 -999 -999 -999 -999
2009-08-10 07:16:30 51°13.667 2°55.934 -999 -999 -999 -999 -999
2009-08-10 07:16:40 51°13.67 2°55.925 -999 -999 -999 -999 -999
2009-08-10 07:16:50 51°13.673 2°55.916 -999 -999 -999 -999 -999
2009-08-10 07:17:00 51°13.676 2°55.906 -999 -999 -999 -999 -999
2009-08-10 07:17:10 51°13.679 2°55.896 -999 -999 -999 -999 -999
2009-08-10 07:17:20 51°13.682 2°55.885 -999 -999 -999 -999 -999
2009-08-10 07:17:30 51°13.685 2°55.873 -999 -999 -999 -999 -999
2009-08-10 07:17:40 51°13.688 2°55.862 -999 -999 -999 -999 -999
2009-08-10 07:17:50 51°13.69 2°55.85 -999 -999 -999 -999 -999
2009-08-10 07:18:00 51°13.691 2°55.838 -999 -999 -999 -999 -999
2009-08-10 07:18:10 51°13.692 2°55.825 -999 -999 -999 -999 -999
2009-08-10 07:18:20 51°13.693 2°55.812 -999 -999 -999 -999 -999
2009-08-10 07:18:30 51°13.693 2°55.799 -999 -999 -999 -999 -999
2009-08-10 07:18:40 51°13.692 2°55.786 -999 -999 -999 -999 -999
2009-08-10 07:18:50 51°13.692 2°55.773 -999 -999 -999 -999 -999
2009-08-10 07:19:00 51°13.691 2°55.762 -999 -999 -999 -999 -999
2009-08-10 07:19:10 51°13.69 2°55.753 -999 -999 -999 -999 -999
2009-08-10 07:19:20 51°13.689 2°55.749 -999 -999 -999 -999 -999
2009-08-10 07:19:30 51°13.689 2°55.746 -999 -999 -999 -999 -999
2009-08-10 07:19:40 51°13.69 2°55.745 -999 -999 -999 -999 -999
2009-08-10 07:19:50 51°13.69 2°55.745 -999 -999 -999 -999 -999
2009-08-10 07:20:00 51°13.692 2°55.745 -999 -999 -999 -999 -999
2009-08-10 07:20:10 51°13.694 2°55.745 -999 -999 -999 -999 -999
2009-08-10 07:20:20 51°13.697 2°55.745 -999 -999 -999 -999 -999
2009-08-10 07:20:30 51°13.701 2°55.746 -999 -999 -999 -999 -999
2009-08-10 07:20:40 51°13.705 2°55.745 -999 -999 -999 -999 -999
2009-08-10 07:20:50 51°13.71 2°55.743 -999 -999 -999 -999 -999
2009-08-10 07:21:00 51°13.715 2°55.74 -999 -999 -999 -999 -999
2009-08-10 07:21:10 51°13.722 2°55.734 -999 -999 -999 -999 -999
2009-08-10 07:21:20 51°13.733 2°55.724 -999 -999 -999 -999 -999
2009-08-10 07:21:30 51°13.744 2°55.713 -999 -999 -999 -999 -999
2009-08-10 07:21:40 51°13.758 2°55.698 -999 -999 -999 -999 -999
2009-08-10 07:21:50 51°13.773 2°55.683 -999 -999 -999 -999 -999
2009-08-10 07:22:00 51°13.787 2°55.669 -999 -999 -999 -999 -999
2009-08-10 07:22:10 51°13.804 2°55.652 -999 -999 -999 -999 -999
2009-08-10 07:22:20 51°13.822 2°55.635 -999 -999 -999 -999 -999
2009-08-10 07:22:30 51°13.84 2°55.619 -999 -999 -999 -999 -999
2009-08-10 07:22:40 51°13.859 2°55.605 -999 -999 -999 -999 -999
2009-08-10 07:22:50 51°13.879 2°55.591 -999 -999 -999 -999 -999
2009-08-10 07:23:00 51°13.898 2°55.578 -999 -999 -999 -999 -999
2009-08-10 07:23:10 51°13.918 2°55.564 -999 -999 -999 -999 -999
2009-08-10 07:23:20 51°13.938 2°55.551 -999 -999 -999 -999 -999
2009-08-10 07:23:30 51°13.959 2°55.538 -999 -999 -999 -999 -999
2009-08-10 07:23:40 51°13.981 2°55.525 -999 -999 -999 -999 -999
2009-08-10 07:23:50 51°14.002 2°55.512 -999 -999 -999 -999 -999
2009-08-10 07:24:00 51°14.023 2°55.498 -999 -999 -999 -999 -999
2009-08-10 07:24:10 51°14.043 2°55.484 -999 -999 -999 -999 -999
2009-08-10 07:24:20 51°14.063 2°55.469 -999 -999 -999 -999 -999
2009-08-10 07:24:30 51°14.083 2°55.453 -999 -999 -999 -999 -999
2009-08-10 07:24:40 51°14.103 2°55.437 -999 -999 -999 -999 -999
2009-08-10 07:24:50 51°14.123 2°55.42 -999 -999 -999 -999 -999
2009-08-10 07:25:00 51°14.143 2°55.402 -999 -999 -999 -999 -999
2009-08-10 07:25:10 51°14.162 2°55.383 -999 -999 -999 -999 -999
2009-08-10 07:25:20 51°14.18 2°55.363 -999 -999 -999 -999 -999
2009-08-10 07:25:30 51°14.198 2°55.341 -999 -999 -999 -999 -999
2009-08-10 07:25:40 51°14.215 2°55.317 -999 -999 -999 -999 -999
2009-08-10 07:25:50 51°14.231 2°55.292 -999 -999 -999 -999 -999
2009-08-10 07:26:00 51°14.247 2°55.265 -999 -999 -999 -999 -999
2009-08-10 07:26:10 51°14.263 2°55.236 -999 -999 -999 -999 -999
2009-08-10 07:26:20 51°14.28 2°55.208 -999 -999 -999 -999 -999
2009-08-10 07:26:30 51°14.295 2°55.177 -999 -999 -999 -999 -999
2009-08-10 07:26:40 51°14.311 2°55.146 -999 -999 -999 -999 -999
2009-08-10 07:26:50 51°14.327 2°55.113 -999 -999 -999 -999 -999
2009-08-10 07:27:00 51°14.343 2°55.079 -999 -999 -999 -999 -999
2009-08-10 07:27:10 51°14.36 2°55.043 -999 -999 -999 -999 -999
2009-08-10 07:27:20 51°14.374 2°55.006 -999 -999 -999 -999 -999
2009-08-10 07:27:30 51°14.385 2°54.964 -999 -999 -999 -999 -999
2009-08-10 07:27:40 51°14.397 2°54.921 -999 -999 -999 -999 -999
2009-08-10 07:27:50 51°14.41 2°54.879 -999 -999 -999 -999 -999
2009-08-10 07:28:00 51°14.427 2°54.838 -999 -999 -999 -999 -999
2009-08-10 07:28:10 51°14.445 2°54.798 -999 -999 -999 -999 -999
2009-08-10 07:28:20 51°14.465 2°54.76 -999 -999 -999 -999 -999
2009-08-10 07:28:30 51°14.486 2°54.721 -999 -999 -999 -999 -999
2009-08-10 07:28:40 51°14.508 2°54.685 -999 -999 -999 -999 -999
2009-08-10 07:28:50 51°14.532 2°54.651 -999 -999 -999 -999 -999
2009-08-10 07:29:00 51°14.556 2°54.619 -999 -999 -999 -999 -999
2009-08-10 07:29:10 51°14.579 2°54.589 -999 -999 -999 -999 -999
2009-08-10 07:29:20 51°14.604 2°54.56 -999 -999 -999 -999 -999
2009-08-10 07:29:30 51°14.63 2°54.531 -999 -999 -999 -999 -999
2009-08-10 07:29:40 51°14.656 2°54.504 -999 -999 -999 -999 -999
2009-08-10 07:29:50 51°14.682 2°54.477 -999 -999 -999 -999 -999
2009-08-10 07:30:00 51°14.709 2°54.45 -999 -999 -999 -999 -999
2009-08-10 07:30:10 51°14.736 2°54.424 -999 -999 -999 -999 -999
2009-08-10 07:30:20 51°14.762 2°54.397 -999 -999 -999 -999 -999
2009-08-10 07:30:30 51°14.789 2°54.371 -999 -999 -999 -999 -999
2009-08-10 07:30:40 51°14.816 2°54.344 -999 -999 -999 -999 -999
2009-08-10 07:30:50 51°14.842 2°54.318 -999 -999 -999 -999 -999
2009-08-10 07:31:00 51°14.869 2°54.291 -999 -999 -999 -999 -999
2009-08-10 07:31:10 51°14.895 2°54.265 -999 -999 -999 -999 -999
2009-08-10 07:31:20 51°14.921 2°54.239 -999 -999 -999 -999 -999
2009-08-10 07:31:30 51°14.947 2°54.212 -999 -999 -999 -999 -999
2009-08-10 07:31:40 51°14.973 2°54.186 -999 -999 -999 -999 -999
2009-08-10 07:31:50 51°15 2°54.16 -999 -999 -999 -999 -999
2009-08-10 07:32:00 51°15.026 2°54.134 -999 -999 -999 -999 -999
2009-08-10 07:32:10 51°15.052 2°54.107 -999 -999 -999 -999 -999
2009-08-10 07:32:20 51°15.078 2°54.08 -999 -999 -999 -999 -999
2009-08-10 07:32:30 51°15.104 2°54.054 -999 -999 -999 -999 -999
2009-08-10 07:32:40 51°15.131 2°54.028 -999 -999 -999 -999 -999
2009-08-10 07:32:50 51°15.158 2°54.003 -999 -999 -999 -999 -999
2009-08-10 07:33:00 51°15.185 2°53.977 -999 -999 -999 -999 -999
2009-08-10 07:33:10 51°15.211 2°53.951 -999 -999 -999 -999 -999
2009-08-10 07:33:20 51°15.241 2°53.924 -999 -999 -999 -999 -999
2009-08-10 07:33:30 51°15.265 2°53.901 -999 -999 -999 -999 -999
2009-08-10 07:33:40 51°15.294 2°53.875 -999 -999 -999 -999 -999
2009-08-10 07:33:50 51°15.319 2°53.855 -999 -999 -999 -999 -999
2009-08-10 07:34:00 51°15.35 2°53.831 -999 -999 -999 -999 -999
2009-08-10 07:34:10 51°15.375 2°53.812 -999 -999 -999 -999 -999
2009-08-10 07:34:20 51°15.403 2°53.791 -999 -999 -999 -999 -999
2009-08-10 07:34:30 51°15.431 2°53.769 -999 -999 -999 -999 -999
2009-08-10 07:34:40 51°15.46 2°53.749 -999 -999 -999 -999 -999
2009-08-10 07:34:50 51°15.489 2°53.728 -999 -999 -999 -999 -999
2009-08-10 07:35:00 51°15.517 2°53.708 -999 -999 -999 -999 -999
2009-08-10 07:35:10 51°15.546 2°53.687 -999 -999 -999 -999 -999
2009-08-10 07:35:20 51°15.574 2°53.665 -999 -999 -999 -999 -999
2009-08-10 07:35:30 51°15.602 2°53.643 -999 -999 -999 -999 -999
2009-08-10 07:35:40 51°15.63 2°53.62 -999 -999 -999 -999 -999
2009-08-10 07:35:50 51°15.658 2°53.597 -999 -999 -999 -999 -999
2009-08-10 07:36:00 51°15.685 2°53.574 -999 -999 -999 -999 -999
2009-08-10 07:36:10 51°15.713 2°53.551 -999 -999 -999 -999 -999
2009-08-10 07:36:20 51°15.741 2°53.527 -999 -999 -999 -999 -999
2009-08-10 07:36:30 51°15.768 2°53.503 -999 -999 -999 -999 -999
2009-08-10 07:36:40 51°15.796 2°53.479 -999 -999 -999 -999 -999
2009-08-10 07:36:50 51°15.823 2°53.455 -999 -999 -999 -999 -999
2009-08-10 07:37:00 51°15.851 2°53.431 -999 -999 -999 -999 -999
2009-08-10 07:37:10 51°15.879 2°53.406 -999 -999 -999 -999 -999
2009-08-10 07:37:20 51°15.906 2°53.382 -999 -999 -999 -999 -999
2009-08-10 07:37:30 51°15.933 2°53.358 -999 -999 -999 -999 -999
2009-08-10 07:37:40 51°15.961 2°53.334 -999 -999 -999 -999 -999
2009-08-10 07:37:50 51°15.989 2°53.312 -999 -999 -999 -999 -999
2009-08-10 07:38:00 51°16.017 2°53.29 -999 -999 -999 -999 -999
2009-08-10 07:38:10 51°16.045 2°53.267 -999 -999 -999 -999 -999
2009-08-10 07:38:20 51°16.072 2°53.243 -999 -999 -999 -999 -999
2009-08-10 07:38:30 51°16.1 2°53.22 -999 -999 -999 -999 -999
2009-08-10 07:38:40 51°16.128 2°53.197 -999 -999 -999 -999 -999
2009-08-10 07:38:50 51°16.156 2°53.173 -999 -999 -999 -999 -999
2009-08-10 07:39:00 51°16.183 2°53.149 -999 -999 -999 -999 -999
2009-08-10 07:39:10 51°16.211 2°53.125 -999 -999 -999 -999 -999
2009-08-10 07:39:20 51°16.238 2°53.1 -999 -999 -999 -999 -999
2009-08-10 07:39:30 51°16.266 2°53.076 -999 -999 -999 -999 -999
2009-08-10 07:39:40 51°16.294 2°53.052 -999 -999 -999 -999 -999
2009-08-10 07:39:50 51°16.322 2°53.028 -999 -999 -999 -999 -999
2009-08-10 07:40:00 51°16.35 2°53.006 -999 -999 -999 -999 -999
2009-08-10 07:40:10 51°16.381 2°52.982 -999 -999 -999 -999 -999
2009-08-10 07:40:20 51°16.41 2°52.96 -999 -999 -999 -999 -999
2009-08-10 07:40:30 51°16.439 2°52.939 -999 -999 -999 -999 -999
2009-08-10 07:40:40 51°16.468 2°52.919 -999 -999 -999 -999 -999
2009-08-10 07:40:50 51°16.494 2°52.901 -999 -999 -999 -999 -999
2009-08-10 07:41:00 51°16.526 2°52.88 -999 -999 -999 -999 -999
2009-08-10 07:41:10 51°16.553 2°52.863 -999 -999 -999 -999 -999
2009-08-10 07:41:20 51°16.582 2°52.844 -999 -999 -999 -999 -999
2009-08-10 07:41:30 51°16.611 2°52.826 -999 -999 -999 -999 -999
2009-08-10 07:41:40 51°16.641 2°52.809 -999 -999 -999 -999 -999
2009-08-10 07:41:50 51°16.671 2°52.793 -999 -999 -999 -999 -999
2009-08-10 07:42:00 51°16.701 2°52.776 -999 -999 -999 -999 -999
2009-08-10 07:42:10 51°16.73 2°52.76 -999 -999 -999 -999 -999
2009-08-10 07:42:20 51°16.76 2°52.743 -999 -999 -999 -999 -999
2009-08-10 07:42:30 51°16.789 2°52.727 -999 -999 -999 -999 -999
2009-08-10 07:42:40 51°16.819 2°52.711 -999 -999 -999 -999 -999
2009-08-10 07:42:50 51°16.848 2°52.695 -999 -999 -999 -999 -999
2009-08-10 07:43:00 51°16.878 2°52.682 -999 -999 -999 -999 -999
2009-08-10 07:43:10 51°16.908 2°52.67 -999 -999 -999 -999 -999
2009-08-10 07:43:20 51°16.938 2°52.659 -999 -999 -999 -999 -999
2009-08-10 07:43:30 51°16.968 2°52.65 -999 -999 -999 -999 -999
2009-08-10 07:43:40 51°16.998 2°52.64 -999 -999 -999 -999 -999
2009-08-10 07:43:50 51°17.029 2°52.63 -999 -999 -999 -999 -999
2009-08-10 07:44:00 51°17.059 2°52.621 -999 -999 -999 -999 -999
2009-08-10 07:44:10 51°17.089 2°52.611 -999 -999 -999 -999 -999
2009-08-10 07:44:20 51°17.119 2°52.601 -999 -999 -999 -999 -999
2009-08-10 07:44:30 51°17.148 2°52.59 -999 -999 -999 -999 -999
2009-08-10 07:44:40 51°17.178 2°52.58 -999 -999 -999 -999 -999
2009-08-10 07:44:50 51°17.208 2°52.569 -999 -999 -999 -999 -999
2009-08-10 07:45:00 51°17.238 2°52.559 -999 -999 -999 -999 -999
2009-08-10 07:45:10 51°17.268 2°52.551 -999 -999 -999 -999 -999
2009-08-10 07:45:20 51°17.299 2°52.544 -999 -999 -999 -999 -999
2009-08-10 07:45:30 51°17.329 2°52.539 -999 -999 -999 -999 -999
2009-08-10 07:45:40 51°17.359 2°52.534 -999 -999 -999 -999 -999
2009-08-10 07:45:50 51°17.389 2°52.53 -999 -999 -999 -999 -999
2009-08-10 07:46:00 51°17.419 2°52.526 -999 -999 -999 -999 -999
2009-08-10 07:46:10 51°17.449 2°52.523 -999 -999 -999 -999 -999
2009-08-10 07:46:20 51°17.48 2°52.52 -999 -999 -999 -999 -999
2009-08-10 07:46:30 51°17.51 2°52.518 -999 -999 -999 -999 -999
2009-08-10 07:46:40 51°17.54 2°52.515 -999 -999 -999 -999 -999
2009-08-10 07:46:50 51°17.57 2°52.513 -999 -999 -999 -999 -999
2009-08-10 07:47:00 51°17.6 2°52.511 -999 -999 -999 -999 -999
2009-08-10 07:47:10 51°17.63 2°52.509 -999 -999 -999 -999 -999
2009-08-10 07:47:20 51°17.66 2°52.507 -999 -999 -999 -999 -999
2009-08-10 07:47:30 51°17.69 2°52.504 -999 -999 -999 -999 -999
2009-08-10 07:47:40 51°17.72 2°52.501 -999 -999 -999 -999 -999
2009-08-10 07:47:50 51°17.751 2°52.498 -999 -999 -999 -999 -999
2009-08-10 07:48:00 51°17.781 2°52.495 -999 -999 -999 -999 -999
2009-08-10 07:48:10 51°17.811 2°52.492 -999 -999 -999 -999 -999
2009-08-10 07:48:20 51°17.841 2°52.489 -999 -999 -999 -999 -999
2009-08-10 07:48:30 51°17.871 2°52.487 -999 -999 -999 -999 -999
2009-08-10 07:48:40 51°17.901 2°52.483 -999 -999 -999 -999 -999
2009-08-10 07:48:50 51°17.932 2°52.481 -999 -999 -999 -999 -999
2009-08-10 07:49:00 51°17.962 2°52.482 -999 -999 -999 -999 -999
2009-08-10 07:49:10 51°17.991 2°52.485 -999 -999 -999 -999 -999
2009-08-10 07:49:20 51°18.021 2°52.49 -999 -999 -999 -999 -999
2009-08-10 07:49:30 51°18.051 2°52.496 -999 -999 -999 -999 -999
2009-08-10 07:49:40 51°18.081 2°52.503 -999 -999 -999 -999 -999
2009-08-10 07:49:50 51°18.11 2°52.511 -999 -999 -999 -999 -999
2009-08-10 07:50:00 51°18.139 2°52.518 -999 -999 -999 -999 -999
2009-08-10 07:50:10 51°18.168 2°52.526 -999 -999 -999 -999 -999
2009-08-10 07:50:20 51°18.197 2°52.535 -999 -999 -999 -999 -999
2009-08-10 07:50:30 51°18.226 2°52.546 -999 -999 -999 -999 -999
2009-08-10 07:50:40 51°18.254 2°52.559 -999 -999 -999 -999 -999
2009-08-10 07:50:50 51°18.281 2°52.574 -999 -999 -999 -999 -999
2009-08-10 07:51:00 51°18.308 2°52.59 -999 -999 -999 -999 -999
2009-08-10 07:51:10 51°18.334 2°52.608 -999 -999 -999 -999 -999
2009-08-10 07:51:20 51°18.36 2°52.627 -999 -999 -999 -999 -999
2009-08-10 07:51:30 51°18.386 2°52.646 -999 -999 -999 -999 -999
2009-08-10 07:51:40 51°18.412 2°52.665 -999 -999 -999 -999 -999
2009-08-10 07:51:50 51°18.438 2°52.686 -999 -999 -999 -999 -999
2009-08-10 07:52:00 51°18.463 2°52.706 -999 -999 -999 -999 -999
2009-08-10 07:52:10 51°18.49 2°52.725 -999 -999 -999 -999 -999
2009-08-10 07:52:20 51°18.515 2°52.745 -999 -999 -999 -999 -999
2009-08-10 07:52:30 51°18.541 2°52.764 -999 -999 -999 -999 -999
2009-08-10 07:52:40 51°18.567 2°52.784 -999 -999 -999 -999 -999
2009-08-10 07:52:50 51°18.593 2°52.803 -999 -999 -999 -999 -999
2009-08-10 07:53:00 51°18.619 2°52.823 -999 -999 -999 -999 -999
2009-08-10 07:53:10 51°18.645 2°52.842 -999 -999 -999 -999 -999
2009-08-10 07:53:20 51°18.672 2°52.861 -999 -999 -999 -999 -999
2009-08-10 07:53:30 51°18.699 2°52.879 -999 -999 -999 -999 -999
2009-08-10 07:53:40 51°18.726 2°52.897 -999 -999 -999 -999 -999
2009-08-10 07:53:50 51°18.752 2°52.916 -999 -999 -999 -999 -999
2009-08-10 07:54:00 51°18.778 2°52.934 -999 -999 -999 -999 -999
2009-08-10 07:54:10 51°18.805 2°52.951 -999 -999 -999 -999 -999
2009-08-10 07:54:20 51°18.832 2°52.968 -999 -999 -999 -999 -999
2009-08-10 07:54:30 51°18.859 2°52.987 -999 -999 -999 -999 -999
2009-08-10 07:54:40 51°18.886 2°53.004 -999 -999 -999 -999 -999
2009-08-10 07:54:50 51°18.913 2°53.022 -999 -999 -999 -999 -999
2009-08-10 07:55:00 51°18.94 2°53.039 -999 -999 -999 -999 -999
2009-08-10 07:55:10 51°18.967 2°53.056 -999 -999 -999 -999 -999
2009-08-10 07:55:20 51°18.994 2°53.073 -999 -999 -999 -999 -999
2009-08-10 07:55:30 51°19.021 2°53.091 -999 -999 -999 -999 -999
2009-08-10 07:55:40 51°19.048 2°53.109 -999 -999 -999 -999 -999
2009-08-10 07:55:50 51°19.075 2°53.127 -999 -999 -999 -999 -999
2009-08-10 07:56:00 51°19.102 2°53.145 -999 -999 -999 -999 -999
2009-08-10 07:56:10 51°19.128 2°53.164 -999 -999 -999 -999 -999
2009-08-10 07:56:20 51°19.155 2°53.182 -999 -999 -999 -999 -999
2009-08-10 07:56:30 51°19.181 2°53.2 -999 -999 -999 -999 -999
2009-08-10 07:56:40 51°19.208 2°53.218 -999 -999 -999 -999 -999
2009-08-10 07:56:50 51°19.234 2°53.236 -999 -999 -999 -999 -999
2009-08-10 07:57:00 51°19.261 2°53.253 -999 -999 -999 -999 -999
2009-08-10 07:57:10 51°19.288 2°53.27 -999 -999 -999 -999 -999
2009-08-10 07:57:20 51°19.315 2°53.288 -999 -999 -999 -999 -999
2009-08-10 07:57:30 51°19.341 2°53.307 -999 -999 -999 -999 -999
2009-08-10 07:57:40 51°19.367 2°53.326 -999 -999 -999 -999 -999
2009-08-10 07:57:50 51°19.393 2°53.345 -999 -999 -999 -999 -999
2009-08-10 07:58:00 51°19.419 2°53.364 -999 -999 -999 -999 -999
2009-08-10 07:58:10 51°19.445 2°53.384 -999 -999 -999 -999 -999
2009-08-10 07:58:20 51°19.471 2°53.403 -999 -999 -999 -999 -999
2009-08-10 07:58:30 51°19.497 2°53.423 -999 -999 -999 -999 -999
2009-08-10 07:58:40 51°19.523 2°53.444 -999 -999 -999 -999 -999
2009-08-10 07:58:50 51°19.548 2°53.465 -999 -999 -999 -999 -999
2009-08-10 07:59:00 51°19.574 2°53.485 -999 -999 -999 -999 -999
2009-08-10 07:59:10 51°19.599 2°53.506 -999 -999 -999 -999 -999
2009-08-10 07:59:20 51°19.625 2°53.527 -999 -999 -999 -999 -999
2009-08-10 07:59:30 51°19.65 2°53.548 -999 -999 -999 -999 -999
2009-08-10 07:59:40 51°19.676 2°53.57 -999 -999 -999 -999 -999
2009-08-10 07:59:50 51°19.701 2°53.591 -999 -999 -999 -999 -999
2009-08-10 08:00:00 51°19.726 2°53.611 -999 -999 -999 -999 -999
2009-08-10 08:00:10 51°19.752 2°53.632 -999 -999 -999 -999 -999
2009-08-10 08:00:20 51°19.778 2°53.653 -999 -999 -999 -999 -999
2009-08-10 08:00:30 51°19.803 2°53.673 -999 -999 -999 -999 -999
2009-08-10 08:00:40 51°19.829 2°53.694 -999 -999 -999 -999 -999
2009-08-10 08:00:50 51°19.854 2°53.715 -999 -999 -999 -999 -999
2009-08-10 08:01:00 51°19.88 2°53.736 -999 -999 -999 -999 -999
2009-08-10 08:01:10 51°19.906 2°53.755 -999 -999 -999 -999 -999
2009-08-10 08:01:20 51°19.932 2°53.774 -999 -999 -999 -999 -999
2009-08-10 08:01:30 51°19.958 2°53.794 -999 -999 -999 -999 -999
2009-08-10 08:01:40 51°19.983 2°53.814 -999 -999 -999 -999 -999
2009-08-10 08:01:50 51°20.009 2°53.835 -999 -999 -999 -999 -999
2009-08-10 08:02:00 51°20.035 2°53.855 -999 -999 -999 -999 -999
2009-08-10 08:02:10 51°20.061 2°53.874 -999 -999 -999 -999 -999
2009-08-10 08:02:20 51°20.087 2°53.894 -999 -999 -999 -999 -999
2009-08-10 08:02:30 51°20.113 2°53.912 -999 -999 -999 -999 -999
2009-08-10 08:02:40 51°20.139 2°53.931 -999 -999 -999 -999 -999
2009-08-10 08:02:50 51°20.165 2°53.951 -999 -999 -999 -999 -999
2009-08-10 08:03:00 51°20.191 2°53.97 -999 -999 -999 -999 -999
2009-08-10 08:03:10 51°20.217 2°53.989 -999 -999 -999 -999 -999
2009-08-10 08:03:20 51°20.243 2°54.009 -999 -999 -999 -999 -999
2009-08-10 08:03:30 51°20.269 2°54.029 -999 -999 -999 -999 -999
2009-08-10 08:03:40 51°20.295 2°54.05 -999 -999 -999 -999 -999
2009-08-10 08:03:50 51°20.32 2°54.072 -999 -999 -999 -999 -999
2009-08-10 08:04:00 51°20.346 2°54.093 -999 -999 -999 -999 -999
2009-08-10 08:04:10 51°20.372 2°54.115 -999 -999 -999 -999 -999
2009-08-10 08:04:20 51°20.398 2°54.136 -999 -999 -999 -999 -999
2009-08-10 08:04:30 51°20.424 2°54.156 -999 -999 -999 -999 -999
2009-08-10 08:04:40 51°20.449 2°54.178 -999 -999 -999 -999 -999
2009-08-10 08:04:50 51°20.475 2°54.199 -999 -999 -999 -999 -999
2009-08-10 08:05:00 51°20.501 2°54.22 -999 -999 -999 -999 -999
2009-08-10 08:05:10 51°20.526 2°54.241 -999 -999 -999 -999 -999
2009-08-10 08:05:20 51°20.552 2°54.262 -999 -999 -999 -999 -999
2009-08-10 08:05:30 51°20.578 2°54.283 -999 -999 -999 -999 -999
2009-08-10 08:05:40 51°20.604 2°54.305 -999 -999 -999 -999 -999
2009-08-10 08:05:50 51°20.63 2°54.326 -999 -999 -999 -999 -999
2009-08-10 08:06:00 51°20.657 2°54.347 -999 -999 -999 -999 -999
2009-08-10 08:06:10 51°20.683 2°54.368 -999 -999 -999 -999 -999
2009-08-10 08:06:20 51°20.709 2°54.389 -999 -999 -999 -999 -999
2009-08-10 08:06:30 51°20.735 2°54.411 -999 -999 -999 -999 -999
2009-08-10 08:06:40 51°20.762 2°54.431 -999 -999 -999 -999 -999
2009-08-10 08:06:50 51°20.788 2°54.452 -999 -999 -999 -999 -999
2009-08-10 08:07:00 51°20.814 2°54.473 -999 -999 -999 -999 -999
2009-08-10 08:07:10 51°20.843 2°54.496 -999 -999 -999 -999 -999
2009-08-10 08:07:20 51°20.869 2°54.518 -999 -999 -999 -999 -999
2009-08-10 08:07:30 51°20.895 2°54.539 -999 -999 -999 -999 -999
2009-08-10 08:07:40 51°20.922 2°54.56 -999 -999 -999 -999 -999
2009-08-10 08:07:50 51°20.948 2°54.582 -999 -999 -999 -999 -999
2009-08-10 08:08:00 51°20.974 2°54.603 -999 -999 -999 -999 -999
2009-08-10 08:08:10 51°20.998 2°54.621 -999 -999 -999 -999 -999
2009-08-10 08:08:20 51°21.025 2°54.642 -999 -999 -999 -999 -999
2009-08-10 08:08:30 51°21.051 2°54.664 -999 -999 -999 -999 -999
2009-08-10 08:08:40 51°21.077 2°54.685 -999 -999 -999 -999 -999
2009-08-10 08:08:50 51°21.104 2°54.705 -999 -999 -999 -999 -999
2009-08-10 08:09:00 51°21.13 2°54.726 -999 -999 -999 -999 -999
2009-08-10 08:09:10 51°21.157 2°54.747 -999 -999 -999 -999 -999
2009-08-10 08:09:20 51°21.183 2°54.768 -999 -999 -999 -999 -999
2009-08-10 08:09:30 51°21.21 2°54.788 -999 -999 -999 -999 -999
2009-08-10 08:09:40 51°21.237 2°54.807 -999 -999 -999 -999 -999
2009-08-10 08:09:50 51°21.263 2°54.828 -999 -999 -999 -999 -999
2009-08-10 08:10:00 51°21.29 2°54.848 -999 -999 -999 -999 -999
2009-08-10 08:10:10 51°21.316 2°54.869 -999 -999 -999 -999 -999
2009-08-10 08:10:20 51°21.342 2°54.89 -999 -999 -999 -999 -999
2009-08-10 08:10:30 51°21.368 2°54.912 -999 -999 -999 -999 -999
2009-08-10 08:10:40 51°21.394 2°54.933 -999 -999 -999 -999 -999
2009-08-10 08:10:50 51°21.42 2°54.954 -999 -999 -999 -999 -999
2009-08-10 08:11:00 51°21.447 2°54.974 -999 -999 -999 -999 -999
2009-08-10 08:11:10 51°21.473 2°54.995 -999 -999 -999 -999 -999
2009-08-10 08:11:20 51°21.499 2°55.016 -999 -999 -999 -999 -999
2009-08-10 08:11:30 51°21.525 2°55.037 -999 -999 -999 -999 -999
2009-08-10 08:11:40 51°21.551 2°55.058 -999 -999 -999 -999 -999
2009-08-10 08:11:50 51°21.578 2°55.079 -999 -999 -999 -999 -999
2009-08-10 08:12:00 51°21.604 2°55.099 -999 -999 -999 -999 -999
2009-08-10 08:12:10 51°21.631 2°55.119 -999 -999 -999 -999 -999
2009-08-10 08:12:20 51°21.657 2°55.14 -999 -999 -999 -999 -999
2009-08-10 08:12:30 51°21.684 2°55.16 -999 -999 -999 -999 -999
2009-08-10 08:12:40 51°21.71 2°55.18 -999 -999 -999 -999 -999
2009-08-10 08:12:50 51°21.737 2°55.2 -999 -999 -999 -999 -999
2009-08-10 08:13:00 51°21.763 2°55.221 -999 -999 -999 -999 -999
2009-08-10 08:13:10 51°21.789 2°55.243 -999 -999 -999 -999 -999
2009-08-10 08:13:20 51°21.814 2°55.265 -999 -999 -999 -999 -999
2009-08-10 08:13:30 51°21.84 2°55.288 -999 -999 -999 -999 -999
2009-08-10 08:13:40 51°21.865 2°55.311 -999 -999 -999 -999 -999
2009-08-10 08:13:50 51°21.89 2°55.334 -999 -999 -999 -999 -999
2009-08-10 08:14:00 51°21.915 2°55.359 -999 -999 -999 -999 -999
2009-08-10 08:14:10 51°21.94 2°55.383 -999 -999 -999 -999 -999
2009-08-10 08:14:20 51°21.967 2°55.411 -999 -999 -999 -999 -999
2009-08-10 08:14:30 51°21.992 2°55.435 -999 -999 -999 -999 -999
2009-08-10 08:14:40 51°22.016 2°55.46 -999 -999 -999 -999 -999
2009-08-10 08:14:50 51°22.041 2°55.485 -999 -999 -999 -999 -999
2009-08-10 08:15:00 51°22.066 2°55.51 -999 -999 -999 -999 -999
2009-08-10 08:15:10 51°22.088 2°55.532 -999 -999 -999 -999 -999
2009-08-10 08:15:20 51°22.113 2°55.557 -999 -999 -999 -999 -999
2009-08-10 08:15:30 51°22.137 2°55.581 -999 -999 -999 -999 -999
2009-08-10 08:15:40 51°22.162 2°55.606 -999 -999 -999 -999 -999
2009-08-10 08:15:50 51°22.186 2°55.631 -999 -999 -999 -999 -999
2009-08-10 08:16:00 51°22.211 2°55.655 -999 -999 -999 -999 -999
2009-08-10 08:16:10 51°22.236 2°55.679 -999 -999 -999 -999 -999
2009-08-10 08:16:20 51°22.261 2°55.704 -999 -999 -999 -999 -999
2009-08-10 08:16:30 51°22.286 2°55.728 -999 -999 -999 -999 -999
2009-08-10 08:16:40 51°22.311 2°55.752 -999 -999 -999 -999 -999
2009-08-10 08:16:50 51°22.336 2°55.776 -999 -999 -999 -999 -999
2009-08-10 08:17:00 51°22.361 2°55.8 -999 -999 -999 -999 -999
2009-08-10 08:17:10 51°22.386 2°55.824 -999 -999 -999 -999 -999
2009-08-10 08:17:20 51°22.411 2°55.848 -999 -999 -999 -999 -999
2009-08-10 08:17:30 51°22.436 2°55.872 -999 -999 -999 -999 -999
2009-08-10 08:17:40 51°22.462 2°55.895 -999 -999 -999 -999 -999
2009-08-10 08:17:50 51°22.488 2°55.917 -999 -999 -999 -999 -999
2009-08-10 08:18:00 51°22.514 2°55.939 -999 -999 -999 -999 -999
2009-08-10 08:18:10 51°22.54 2°55.961 -999 -999 -999 -999 -999
2009-08-10 08:18:20 51°22.566 2°55.982 -999 -999 -999 -999 -999
2009-08-10 08:18:30 51°22.592 2°56.004 -999 -999 -999 -999 -999
2009-08-10 08:18:40 51°22.619 2°56.024 -999 -999 -999 -999 -999
2009-08-10 08:18:50 51°22.646 2°56.045 -999 -999 -999 -999 -999
2009-08-10 08:19:00 51°22.672 2°56.065 -999 -999 -999 -999 -999
2009-08-10 08:19:10 51°22.699 2°56.085 -999 -999 -999 -999 -999
2009-08-10 08:19:20 51°22.726 2°56.105 -999 -999 -999 -999 -999
2009-08-10 08:19:30 51°22.752 2°56.125 -999 -999 -999 -999 -999
2009-08-10 08:19:40 51°22.779 2°56.145 -999 -999 -999 -999 -999
2009-08-10 08:19:50 51°22.806 2°56.165 -999 -999 -999 -999 -999
2009-08-10 08:20:00 51°22.833 2°56.184 -999 -999 -999 -999 -999
2009-08-10 08:20:10 51°22.86 2°56.204 -999 -999 -999 -999 -999
2009-08-10 08:20:20 51°22.887 2°56.224 -999 -999 -999 -999 -999
2009-08-10 08:20:30 51°22.914 2°56.243 -999 -999 -999 -999 -999
2009-08-10 08:20:40 51°22.941 2°56.262 -999 -999 -999 -999 -999
2009-08-10 08:20:50 51°22.968 2°56.282 -999 -999 -999 -999 -999
2009-08-10 08:21:00 51°22.995 2°56.301 -999 -999 -999 -999 -999
2009-08-10 08:21:10 51°23.022 2°56.322 -999 -999 -999 -999 -999
2009-08-10 08:21:20 51°23.049 2°56.342 -999 -999 -999 -999 -999
2009-08-10 08:21:30 51°23.075 2°56.362 -999 -999 -999 -999 -999
2009-08-10 08:21:40 51°23.102 2°56.382 -999 -999 -999 -999 -999
2009-08-10 08:21:50 51°23.129 2°56.401 -999 -999 -999 -999 -999
2009-08-10 08:22:00 51°23.157 2°56.42 -999 -999 -999 -999 -999
2009-08-10 08:22:10 51°23.187 2°56.441 -999 -999 -999 -999 -999
2009-08-10 08:22:20 51°23.214 2°56.459 -999 -999 -999 -999 -999
2009-08-10 08:22:30 51°23.241 2°56.478 -999 -999 -999 -999 -999
2009-08-10 08:22:40 51°23.268 2°56.497 -999 -999 -999 -999 -999
2009-08-10 08:22:50 51°23.295 2°56.517 -999 -999 -999 -999 -999
2009-08-10 08:23:00 51°23.322 2°56.536 -999 -999 -999 -999 -999
2009-08-10 08:23:10 51°23.347 2°56.553 -999 -999 -999 -999 -999
2009-08-10 08:23:20 51°23.374 2°56.573 -999 -999 -999 -999 -999
2009-08-10 08:23:30 51°23.401 2°56.593 -999 -999 -999 -999 -999
2009-08-10 08:23:40 51°23.427 2°56.614 -999 -999 -999 -999 -999
2009-08-10 08:23:50 51°23.454 2°56.634 -999 -999 -999 -999 -999
2009-08-10 08:24:00 51°23.481 2°56.653 -999 -999 -999 -999 -999
2009-08-10 08:24:10 51°23.509 2°56.672 -999 -999 -999 -999 -999
2009-08-10 08:24:20 51°23.536 2°56.691 -999 -999 -999 -999 -999
2009-08-10 08:24:30 51°23.564 2°56.71 -999 -999 -999 -999 -999
2009-08-10 08:24:40 51°23.591 2°56.729 -999 -999 -999 -999 -999
2009-08-10 08:24:50 51°23.619 2°56.747 -999 -999 -999 -999 -999
2009-08-10 08:25:00 51°23.647 2°56.764 -999 -999 -999 -999 -999
2009-08-10 08:25:10 51°23.675 2°56.78 -999 -999 -999 -999 -999
2009-08-10 08:25:20 51°23.703 2°56.797 -999 -999 -999 -999 -999
2009-08-10 08:25:30 51°23.731 2°56.814 -999 -999 -999 -999 -999
2009-08-10 08:25:40 51°23.759 2°56.829 -999 -999 -999 -999 -999
2009-08-10 08:25:50 51°23.788 2°56.844 -999 -999 -999 -999 -999
2009-08-10 08:26:00 51°23.816 2°56.861 -999 -999 -999 -999 -999
2009-08-10 08:26:10 51°23.844 2°56.876 -999 -999 -999 -999 -999
2009-08-10 08:26:20 51°23.873 2°56.891 -999 -999 -999 -999 -999
2009-08-10 08:26:30 51°23.901 2°56.906 -999 -999 -999 -999 -999
2009-08-10 08:26:40 51°23.929 2°56.921 -999 -999 -999 -999 -999
2009-08-10 08:26:50 51°23.957 2°56.936 -999 -999 -999 -999 -999
2009-08-10 08:27:00 51°23.985 2°56.952 -999 -999 -999 -999 -999
2009-08-10 08:27:10 51°24.014 2°56.968 -999 -999 -999 -999 -999
2009-08-10 08:27:20 51°24.042 2°56.984 -999 -999 -999 -999 -999
2009-08-10 08:27:30 51°24.07 2°57.001 -999 -999 -999 -999 -999
2009-08-10 08:27:40 51°24.099 2°57.018 -999 -999 -999 -999 -999
2009-08-10 08:27:50 51°24.127 2°57.034 -999 -999 -999 -999 -999
2009-08-10 08:28:00 51°24.155 2°57.051 -999 -999 -999 -999 -999
2009-08-10 08:28:10 51°24.184 2°57.067 -999 -999 -999 -999 -999
2009-08-10 08:28:20 51°24.213 2°57.083 -999 -999 -999 -999 -999
2009-08-10 08:28:30 51°24.241 2°57.099 -999 -999 -999 -999 -999
2009-08-10 08:28:40 51°24.269 2°57.116 -999 -999 -999 -999 -999
2009-08-10 08:28:50 51°24.298 2°57.132 -999 -999 -999 -999 -999
2009-08-10 08:29:00 51°24.327 2°57.149 -999 -999 -999 -999 -999
2009-08-10 08:29:10 51°24.355 2°57.165 -999 -999 -999 -999 -999
2009-08-10 08:29:20 51°24.383 2°57.182 -999 -999 -999 -999 -999
2009-08-10 08:29:30 51°24.412 2°57.198 -999 -999 -999 -999 -999
2009-08-10 08:29:40 51°24.44 2°57.215 -999 -999 -999 -999 -999
2009-08-10 08:29:50 51°24.469 2°57.231 -999 -999 -999 -999 -999
2009-08-10 08:30:00 51°24.497 2°57.248 -999 -999 -999 -999 -999
2009-08-10 08:30:10 51°24.525 2°57.266 -999 -999 -999 -999 -999
2009-08-10 08:30:20 51°24.552 2°57.285 -999 -999 -999 -999 -999
2009-08-10 08:30:30 51°24.58 2°57.304 -999 -999 -999 -999 -999
2009-08-10 08:30:40 51°24.607 2°57.323 -999 -999 -999 -999 -999
2009-08-10 08:30:50 51°24.635 2°57.342 -999 -999 -999 -999 -999
2009-08-10 08:31:00 51°24.662 2°57.36 -999 -999 -999 -999 -999
2009-08-10 08:31:10 51°24.69 2°57.378 -999 -999 -999 -999 -999
2009-08-10 08:31:20 51°24.717 2°57.398 -999 -999 -999 -999 -999
2009-08-10 08:31:30 51°24.744 2°57.417 -999 -999 -999 -999 -999
2009-08-10 08:31:40 51°24.771 2°57.438 -999 -999 -999 -999 -999
2009-08-10 08:31:50 51°24.797 2°57.459 -999 -999 -999 -999 -999
2009-08-10 08:32:00 51°24.823 2°57.481 -999 -999 -999 -999 -999
2009-08-10 08:32:10 51°24.849 2°57.503 -999 -999 -999 -999 -999
2009-08-10 08:32:20 51°24.876 2°57.526 -999 -999 -999 -999 -999
2009-08-10 08:32:30 51°24.902 2°57.549 -999 -999 -999 -999 -999
2009-08-10 08:32:40 51°24.928 2°57.571 -999 -999 -999 -999 -999
2009-08-10 08:32:50 51°24.954 2°57.594 -999 -999 -999 -999 -999
2009-08-10 08:33:00 51°24.981 2°57.616 -999 -999 -999 -999 -999
2009-08-10 08:33:10 51°25.007 2°57.638 -999 -999 -999 -999 -999
2009-08-10 08:33:20 51°25.033 2°57.661 -999 -999 -999 -999 -999
2009-08-10 08:33:30 51°25.059 2°57.684 -999 -999 -999 -999 -999
2009-08-10 08:33:40 51°25.085 2°57.708 -999 -999 -999 -999 -999
2009-08-10 08:33:50 51°25.11 2°57.732 -999 -999 -999 -999 -999
2009-08-10 08:34:00 51°25.136 2°57.755 -999 -999 -999 -999 -999
2009-08-10 08:34:10 51°25.162 2°57.777 -999 -999 -999 -999 -999
2009-08-10 08:34:20 51°25.188 2°57.8 -999 -999 -999 -999 -999
2009-08-10 08:34:30 51°25.215 2°57.822 -999 -999 -999 -999 -999
2009-08-10 08:34:40 51°25.24 2°57.846 -999 -999 -999 -999 -999
2009-08-10 08:34:50 51°25.267 2°57.868 -999 -999 -999 -999 -999
2009-08-10 08:35:00 51°25.293 2°57.891 -999 -999 -999 -999 -999
2009-08-10 08:35:10 51°25.319 2°57.915 -999 -999 -999 -999 -999
2009-08-10 08:35:20 51°25.344 2°57.939 -999 -999 -999 -999 -999
2009-08-10 08:35:30 51°25.37 2°57.963 -999 -999 -999 -999 -999
2009-08-10 08:35:40 51°25.396 2°57.987 -999 -999 -999 -999 -999
2009-08-10 08:35:50 51°25.421 2°58.012 -999 -999 -999 -999 -999
2009-08-10 08:36:00 51°25.447 2°58.036 -999 -999 -999 -999 -999
2009-08-10 08:36:10 51°25.473 2°58.061 -999 -999 -999 -999 -999
2009-08-10 08:36:20 51°25.498 2°58.086 -999 -999 -999 -999 -999
2009-08-10 08:36:30 51°25.524 2°58.111 -999 -999 -999 -999 -999
2009-08-10 08:36:40 51°25.548 2°58.137 -999 -999 -999 -999 -999
2009-08-10 08:36:50 51°25.574 2°58.162 -999 -999 -999 -999 -999
2009-08-10 08:37:00 51°25.598 2°58.188 -999 -999 -999 -999 -999
2009-08-10 08:37:10 51°25.626 2°58.215 -999 -999 -999 -999 -999
2009-08-10 08:37:20 51°25.651 2°58.24 -999 -999 -999 -999 -999
2009-08-10 08:37:30 51°25.676 2°58.265 -999 -999 -999 -999 -999
2009-08-10 08:37:40 51°25.701 2°58.29 -999 -999 -999 -999 -999
2009-08-10 08:37:50 51°25.726 2°58.315 -999 -999 -999 -999 -999
2009-08-10 08:38:00 51°25.751 2°58.34 -999 -999 -999 -999 -999
2009-08-10 08:38:10 51°25.773 2°58.364 -999 -999 -999 -999 -999
2009-08-10 08:38:20 51°25.798 2°58.39 -999 -999 -999 -999 -999
2009-08-10 08:38:30 51°25.823 2°58.415 -999 -999 -999 -999 -999
2009-08-10 08:38:40 51°25.848 2°58.441 -999 -999 -999 -999 -999
2009-08-10 08:38:50 51°25.873 2°58.466 -999 -999 -999 -999 -999
2009-08-10 08:39:00 51°25.898 2°58.492 -999 -999 -999 -999 -999
2009-08-10 08:39:10 51°25.925 2°58.521 -999 -999 -999 -999 -999
2009-08-10 08:39:20 51°25.95 2°58.547 -999 -999 -999 -999 -999
2009-08-10 08:39:30 51°25.975 2°58.573 -999 -999 -999 -999 -999
2009-08-10 08:39:40 51°26 2°58.598 -999 -999 -999 -999 -999
2009-08-10 08:39:50 51°26.023 2°58.621 -999 -999 -999 -999 -999
2009-08-10 08:40:00 51°26.048 2°58.647 -999 -999 -999 -999 -999
2009-08-10 08:40:10 51°26.073 2°58.673 -999 -999 -999 -999 -999
2009-08-10 08:40:20 51°26.097 2°58.699 -999 -999 -999 -999 -999
2009-08-10 08:40:30 51°26.122 2°58.725 -999 -999 -999 -999 -999
2009-08-10 08:40:40 51°26.147 2°58.751 -999 -999 -999 -999 -999
2009-08-10 08:40:50 51°26.172 2°58.776 -999 -999 -999 -999 -999
2009-08-10 08:41:00 51°26.197 2°58.801 -999 -999 -999 -999 -999
2009-08-10 08:41:10 51°26.222 2°58.827 -999 -999 -999 -999 -999
2009-08-10 08:41:20 51°26.247 2°58.853 -999 -999 -999 -999 -999
2009-08-10 08:41:30 51°26.272 2°58.878 -999 -999 -999 -999 -999
2009-08-10 08:41:40 51°26.298 2°58.903 -999 -999 -999 -999 -999
2009-08-10 08:41:50 51°26.322 2°58.928 -999 -999 -999 -999 -999
2009-08-10 08:42:00 51°26.348 2°58.953 -999 -999 -999 -999 -999
2009-08-10 08:42:10 51°26.375 2°58.98 -999 -999 -999 -999 -999
2009-08-10 08:42:20 51°26.401 2°59.005 -999 -999 -999 -999 -999
2009-08-10 08:42:30 51°26.426 2°59.03 -999 -999 -999 -999 -999
2009-08-10 08:42:40 51°26.451 2°59.056 -999 -999 -999 -999 -999
2009-08-10 08:42:50 51°26.475 2°59.082 -999 -999 -999 -999 -999
2009-08-10 08:43:00 51°26.498 2°59.104 -999 -999 -999 -999 -999
2009-08-10 08:43:10 51°26.523 2°59.13 -999 -999 -999 -999 -999
2009-08-10 08:43:20 51°26.547 2°59.156 -999 -999 -999 -999 -999
2009-08-10 08:43:30 51°26.571 2°59.181 -999 -999 -999 -999 -999
2009-08-10 08:43:40 51°26.594 2°59.204 -999 -999 -999 -999 -999
2009-08-10 08:43:50 51°26.615 2°59.226 -999 -999 -999 -999 -999
2009-08-10 08:44:00 51°26.635 2°59.247 -999 -999 -999 -999 -999
2009-08-10 08:44:10 51°26.655 2°59.267 -999 -999 -999 -999 -999
2009-08-10 08:44:20 51°26.674 2°59.287 -999 -999 -999 -999 -999
2009-08-10 08:44:30 51°26.693 2°59.307 -999 -999 -999 -999 -999
2009-08-10 08:44:40 51°26.712 2°59.325 -999 -999 -999 -999 -999
2009-08-10 08:44:50 51°26.73 2°59.345 -999 -999 -999 -999 -999
2009-08-10 08:45:00 51°26.748 2°59.364 -999 -999 -999 -999 -999
2009-08-10 08:45:10 51°26.766 2°59.384 -999 -999 -999 -999 -999
2009-08-10 08:45:20 51°26.784 2°59.405 -999 -999 -999 -999 -999
2009-08-10 08:45:30 51°26.801 2°59.426 -999 -999 -999 -999 -999
2009-08-10 08:45:40 51°26.818 2°59.447 -999 -999 -999 -999 -999
2009-08-10 08:45:50 51°26.835 2°59.467 -999 -999 -999 -999 -999
2009-08-10 08:46:00 51°26.852 2°59.488 -999 -999 -999 -999 -999
2009-08-10 08:46:10 51°26.869 2°59.509 -999 -999 -999 -999 -999
2009-08-10 08:46:20 51°26.886 2°59.53 -999 -999 -999 -999 -999
2009-08-10 08:46:30 51°26.903 2°59.551 -999 -999 -999 -999 -999
2009-08-10 08:46:40 51°26.92 2°59.572 -999 -999 -999 -999 -999
2009-08-10 08:46:50 51°26.937 2°59.593 -999 -999 -999 -999 -999
2009-08-10 08:47:00 51°26.953 2°59.614 -999 -999 -999 -999 -999
2009-08-10 08:47:10 51°26.97 2°59.634 -999 -999 -999 -999 -999
2009-08-10 08:47:20 51°26.988 2°59.655 -999 -999 -999 -999 -999
2009-08-10 08:47:30 51°27.005 2°59.675 -999 -999 -999 -999 -999
2009-08-10 08:47:40 51°27.021 2°59.696 -999 -999 -999 -999 -999
2009-08-10 08:47:50 51°27.038 2°59.717 -999 -999 -999 -999 -999
2009-08-10 08:48:00 51°27.054 2°59.736 -999 -999 -999 -999 -999
2009-08-10 08:48:10 51°27.069 2°59.754 -999 -999 -999 -999 -999
2009-08-10 08:48:20 51°27.084 2°59.77 -999 -999 -999 -999 -999
2009-08-10 08:48:30 51°27.097 2°59.786 -999 -999 -999 -999 -999
2009-08-10 08:48:40 51°27.109 2°59.8 -999 -999 -999 -999 -999
2009-08-10 08:48:50 51°27.12 2°59.814 -999 -999 -999 -999 -999
2009-08-10 08:49:00 51°27.131 2°59.827 -999 -999 -999 -999 -999
2009-08-10 08:49:10 51°27.142 2°59.839 -999 -999 -999 -999 -999
2009-08-10 08:49:20 51°27.153 2°59.851 -999 -999 -999 -999 -999
2009-08-10 08:49:30 51°27.163 2°59.862 -999 -999 -999 -999 -999
2009-08-10 08:49:40 51°27.173 2°59.872 -999 -999 -999 -999 -999
2009-08-10 08:49:50 51°27.183 2°59.882 -999 -999 -999 -999 -999
2009-08-10 08:50:00 51°27.193 2°59.891 -999 -999 -999 -999 -999
2009-08-10 08:50:10 51°27.204 2°59.9 -999 -999 -999 -999 -999
2009-08-10 08:50:20 51°27.213 2°59.909 -999 -999 -999 -999 -999
2009-08-10 08:50:30 51°27.222 2°59.916 -999 -999 -999 -999 -999
2009-08-10 08:50:40 51°27.231 2°59.923 -999 -999 -999 -999 -999
2009-08-10 08:50:50 51°27.239 2°59.929 -999 -999 -999 -999 -999
2009-08-10 08:51:00 51°27.246 2°59.934 -999 -999 -999 -999 -999
2009-08-10 08:51:10 51°27.252 2°59.938 -999 -999 -999 -999 -999
2009-08-10 08:51:20 51°27.258 2°59.942 -999 -999 -999 -999 -999
2009-08-10 08:51:30 51°27.265 2°59.945 -999 -999 -999 -999 -999
2009-08-10 08:51:40 51°27.27 2°59.948 -999 -999 -999 -999 -999
2009-08-10 08:51:50 51°27.276 2°59.95 -999 -999 -999 -999 -999
2009-08-10 08:52:00 51°27.281 2°59.951 -999 -999 -999 -999 -999
2009-08-10 08:52:10 51°27.286 2°59.952 -999 -999 -999 -999 -999
2009-08-10 08:52:20 51°27.29 2°59.952 -999 -999 -999 -999 -999
2009-08-10 08:52:30 51°27.293 2°59.952 -999 -999 -999 -999 -999
2009-08-10 08:52:40 51°27.294 2°59.95 -999 -999 -999 -999 -999
2009-08-10 08:52:50 51°27.296 2°59.949 -999 -999 -999 -999 -999
2009-08-10 08:53:00 51°27.297 2°59.947 -999 -999 -999 -999 -999
2009-08-10 08:53:10 51°27.298 2°59.946 -999 -999 -999 -999 -999
2009-08-10 08:53:20 51°27.3 2°59.944 -999 -999 -999 -999 -999
2009-08-10 08:53:30 51°27.301 2°59.943 -999 -999 -999 -999 -999
2009-08-10 08:53:40 51°27.302 2°59.941 -999 -999 -999 -999 -999
2009-08-10 08:53:50 51°27.303 2°59.939 -999 -999 -999 -999 -999
2009-08-10 08:54:00 51°27.304 2°59.938 -999 -999 -999 -999 -999
2009-08-10 08:54:10 51°27.304 2°59.937 -999 -999 -999 -999 -999
2009-08-10 08:54:20 51°27.305 2°59.935 -999 -999 -999 -999 -999
2009-08-10 08:54:30 51°27.306 2°59.934 -999 -999 -999 -999 -999
2009-08-10 08:54:40 51°27.306 2°59.932 -999 -999 -999 -999 -999
2009-08-10 08:54:50 51°27.306 2°59.931 -999 -999 -999 -999 -999
2009-08-10 08:55:00 51°27.307 2°59.929 -999 -999 -999 -999 -999
2009-08-10 08:55:10 51°27.307 2°59.928 -999 -999 -999 -999 -999
2009-08-10 08:55:20 51°27.307 2°59.926 -999 -999 -999 -999 -999
2009-08-10 08:55:30 51°27.307 2°59.925 -999 -999 -999 -999 -999
2009-08-10 08:55:40 51°27.307 2°59.924 -999 -999 -999 -999 -999
2009-08-10 08:55:50 51°27.307 2°59.922 -999 -999 -999 -999 -999
2009-08-10 08:56:00 51°27.307 2°59.921 -999 -999 -999 -999 -999
2009-08-10 08:56:10 51°27.306 2°59.92 -999 -999 -999 -999 -999
2009-08-10 08:56:20 51°27.306 2°59.918 -999 -999 -999 -999 -999
2009-08-10 08:56:30 51°27.306 2°59.917 -999 -999 -999 -999 -999
2009-08-10 08:56:40 51°27.306 2°59.916 -999 -999 -999 -999 -999
2009-08-10 08:56:50 51°27.305 2°59.914 -999 -999 -999 -999 -999
2009-08-10 08:57:00 51°27.305 2°59.913 -999 -999 -999 -999 -999
2009-08-10 08:57:10 51°27.305 2°59.911 -999 -999 -999 -999 -999
2009-08-10 08:57:20 51°27.304 2°59.91 -999 -999 -999 -999 -999
2009-08-10 08:57:30 51°27.303 2°59.909 -999 -999 -999 -999 -999
2009-08-10 08:57:40 51°27.302 2°59.908 -999 -999 -999 -999 -999
2009-08-10 08:57:50 51°27.301 2°59.907 -999 -999 -999 -999 -999
2009-08-10 08:58:00 51°27.3 2°59.906 -999 -999 -999 -999 -999
2009-08-10 08:58:10 51°27.3 2°59.905 -999 -999 -999 -999 -999
2009-08-10 08:58:20 51°27.299 2°59.904 -999 -999 -999 -999 -999
2009-08-10 08:58:30 51°27.297 2°59.903 -999 -999 -999 -999 -999
2009-08-10 08:58:40 51°27.297 2°59.902 -999 -999 -999 -999 -999
2009-08-10 08:58:50 51°27.295 2°59.901 -999 -999 -999 -999 -999
2009-08-10 08:59:00 51°27.294 2°59.9 -999 -999 -999 -999 -999
2009-08-10 08:59:10 51°27.293 2°59.898 -999 -999 -999 -999 -999
2009-08-10 08:59:20 51°27.292 2°59.897 -999 -999 -999 -999 -999
2009-08-10 08:59:30 51°27.29 2°59.896 -999 -999 -999 -999 -999
2009-08-10 08:59:40 51°27.289 2°59.894 -999 -999 -999 -999 -999
2009-08-10 08:59:50 51°27.288 2°59.893 -999 -999 -999 -999 -999
2009-08-10 09:00:00 51°27.286 2°59.891 -999 -999 -999 -999 -999
2009-08-10 09:00:10 51°27.285 2°59.889 -999 -999 -999 -999 -999
2009-08-10 09:00:20 51°27.284 2°59.887 -999 -999 -999 -999 -999
2009-08-10 09:00:30 51°27.282 2°59.885 -999 -999 -999 -999 -999
2009-08-10 09:00:40 51°27.28 2°59.884 -999 -999 -999 -999 -999
2009-08-10 09:00:50 51°27.278 2°59.882 -999 -999 -999 -999 -999
2009-08-10 09:01:00 51°27.277 2°59.88 -999 -999 -999 -999 -999
2009-08-10 09:01:10 51°27.275 2°59.878 -999 -999 -999 -999 -999
2009-08-10 09:01:20 51°27.273 2°59.876 -999 -999 -999 -999 -999
2009-08-10 09:01:30 51°27.271 2°59.874 -999 -999 -999 -999 -999
2009-08-10 09:01:40 51°27.269 2°59.873 -999 -999 -999 -999 -999
2009-08-10 09:01:50 51°27.267 2°59.874 -999 -999 -999 -999 -999
2009-08-10 09:02:00 51°27.266 2°59.877 -999 -999 -999 -999 -999
2009-08-10 09:02:10 51°27.266 2°59.882 -999 -999 -999 -999 -999
2009-08-10 09:02:20 51°27.266 2°59.888 -999 -999 -999 -999 -999
2009-08-10 09:02:30 51°27.268 2°59.894 -999 -999 -999 -999 -999
2009-08-10 09:02:40 51°27.271 2°59.9 -999 -999 -999 -999 -999
2009-08-10 09:02:50 51°27.275 2°59.906 -999 -999 -999 -999 -999
2009-08-10 09:03:00 51°27.28 2°59.913 -999 -999 -999 -999 -999
2009-08-10 09:03:10 51°27.285 2°59.922 -999 -999 -999 -999 -999
2009-08-10 09:03:20 51°27.29 2°59.932 -999 -999 -999 -999 -999
2009-08-10 09:03:30 51°27.293 2°59.942 -999 -999 -999 -999 -999
2009-08-10 09:03:40 51°27.295 2°59.95 -999 -999 -999 -999 -999
2009-08-10 09:03:50 51°27.296 2°59.955 -999 -999 -999 -999 -999
2009-08-10 09:04:00 51°27.296 2°59.958 -999 -999 -999 -999 -999
2009-08-10 09:04:10 51°27.296 2°59.959 -999 -999 -999 -999 -999
2009-08-10 09:04:20 51°27.295 2°59.959 -999 -999 -999 -999 -999
2009-08-10 09:04:30 51°27.294 2°59.959 -999 -999 -999 -999 -999
2009-08-10 09:04:40 51°27.293 2°59.958 -999 -999 -999 -999 -999
2009-08-10 09:04:50 51°27.292 2°59.958 -999 -999 -999 -999 -999
2009-08-10 09:05:00 51°27.29 2°59.957 -999 -999 -999 -999 -999
2009-08-10 09:05:10 51°27.289 2°59.956 -999 -999 -999 -999 -999
2009-08-10 09:05:20 51°27.287 2°59.956 -999 -999 -999 -999 -999
2009-08-10 09:05:30 51°27.286 2°59.955 -999 -999 -999 -999 -999
2009-08-10 09:05:40 51°27.284 2°59.954 -999 -999 -999 -999 -999
2009-08-10 09:05:50 51°27.282 2°59.953 -999 -999 -999 -999 -999
2009-08-10 09:06:00 51°27.28 2°59.952 -999 -999 -999 -999 -999
2009-08-10 09:06:10 51°27.279 2°59.951 -999 -999 -999 -999 -999
2009-08-10 09:06:20 51°27.277 2°59.95 -999 -999 -999 -999 -999
2009-08-10 09:06:30 51°27.275 2°59.948 -999 -999 -999 -999 -999
2009-08-10 09:06:40 51°27.273 2°59.946 -999 -999 -999 -999 -999
2009-08-10 09:06:50 51°27.272 2°59.944 -999 -999 -999 -999 -999
2009-08-10 09:07:00 51°27.27 2°59.941 -999 -999 -999 -999 -999
2009-08-10 09:07:10 51°27.268 2°59.938 -999 -999 -999 -999 -999
2009-08-10 09:07:20 51°27.266 2°59.934 -999 -999 -999 -999 -999
2009-08-10 09:07:30 51°27.264 2°59.931 -999 -999 -999 -999 -999
2009-08-10 09:07:40 51°27.263 2°59.928 -999 -999 -999 -999 -999
2009-08-10 09:07:50 51°27.261 2°59.925 -999 -999 -999 -999 -999
2009-08-10 09:08:00 51°27.259 2°59.921 -999 -999 -999 -999 -999
2009-08-10 09:08:10 51°27.258 2°59.918 -999 -999 -999 -999 -999
2009-08-10 09:08:20 51°27.256 2°59.915 -999 -999 -999 -999 -999
2009-08-10 09:08:30 51°27.254 2°59.912 -999 -999 -999 -999 -999
2009-08-10 09:08:40 51°27.252 2°59.909 -999 -999 -999 -999 -999
2009-08-10 09:08:50 51°27.251 2°59.906 -999 -999 -999 -999 -999
2009-08-10 09:09:00 51°27.249 2°59.903 -999 -999 -999 -999 -999
2009-08-10 09:09:10 51°27.247 2°59.9 -999 -999 -999 -999 -999
2009-08-10 09:09:20 51°27.245 2°59.898 -999 -999 -999 -999 -999
2009-08-10 09:09:30 51°27.243 2°59.895 -999 -999 -999 -999 -999
2009-08-10 09:09:40 51°27.242 2°59.892 -999 -999 -999 -999 -999
2009-08-10 09:09:50 51°27.24 2°59.889 -999 -999 -999 -999 -999
2009-08-10 09:10:00 51°27.238 2°59.886 -999 -999 -999 -999 -999
2009-08-10 09:10:10 51°27.236 2°59.883 -999 -999 -999 -999 -999
2009-08-10 09:10:20 51°27.234 2°59.88 -999 -999 -999 -999 -999
2009-08-10 09:10:30 51°27.233 2°59.877 -999 -999 -999 -999 -999
2009-08-10 09:10:40 51°27.231 2°59.875 -999 -999 -999 -999 -999
2009-08-10 09:10:50 51°27.229 2°59.872 -999 -999 -999 -999 -999
2009-08-10 09:11:00 51°27.227 2°59.869 -999 -999 -999 -999 -999
2009-08-10 09:11:10 51°27.225 2°59.866 -999 -999 -999 -999 -999
2009-08-10 09:11:20 51°27.223 2°59.864 -999 -999 -999 -999 -999
2009-08-10 09:11:30 51°27.221 2°59.861 -999 -999 -999 -999 -999
2009-08-10 09:11:40 51°27.219 2°59.858 -999 -999 -999 -999 -999
2009-08-10 09:11:50 51°27.218 2°59.855 -999 -999 -999 -999 -999
2009-08-10 09:12:00 51°27.215 2°59.853 -999 -999 -999 -999 -999
2009-08-10 09:12:10 51°27.213 2°59.85 -999 -999 -999 -999 -999
2009-08-10 09:12:20 51°27.211 2°59.847 -999 -999 -999 -999 -999
2009-08-10 09:12:30 51°27.209 2°59.844 -999 -999 -999 -999 -999
2009-08-10 09:12:40 51°27.207 2°59.841 -999 -999 -999 -999 -999
2009-08-10 09:12:50 51°27.205 2°59.838 -999 -999 -999 -999 -999
2009-08-10 09:13:00 51°27.203 2°59.836 -999 -999 -999 -999 -999
2009-08-10 09:13:10 51°27.201 2°59.833 -999 -999 -999 -999 -999
2009-08-10 09:13:20 51°27.199 2°59.831 -999 -999 -999 -999 -999
2009-08-10 09:13:30 51°27.197 2°59.828 -999 -999 -999 -999 -999
2009-08-10 09:13:40 51°27.195 2°59.825 -999 -999 -999 -999 -999
2009-08-10 09:13:50 51°27.193 2°59.822 -999 -999 -999 -999 -999
2009-08-10 09:14:00 51°27.191 2°59.82 -999 -999 -999 -999 -999
2009-08-10 09:14:10 51°27.19 2°59.817 -999 -999 -999 -999 -999
2009-08-10 09:14:20 51°27.188 2°59.814 -999 -999 -999 -999 -999
2009-08-10 09:14:30 51°27.186 2°59.811 -999 -999 -999 -999 -999
2009-08-10 09:14:40 51°27.184 2°59.809 -999 -999 -999 -999 -999
2009-08-10 09:14:50 51°27.181 2°59.806 -999 -999 -999 -999 -999
2009-08-10 09:15:00 51°27.179 2°59.803 -999 -999 -999 -999 -999
2009-08-10 09:15:10 51°27.177 2°59.8 -999 -999 -999 -999 -999
2009-08-10 09:15:20 51°27.175 2°59.798 -999 -999 -999 -999 -999
2009-08-10 09:15:30 51°27.173 2°59.795 -999 -999 -999 -999 -999
2009-08-10 09:15:40 51°27.171 2°59.792 -999 -999 -999 -999 -999
2009-08-10 09:15:50 51°27.169 2°59.789 -999 -999 -999 -999 -999
2009-08-10 09:16:00 51°27.168 2°59.786 -999 -999 -999 -999 -999
2009-08-10 09:16:10 51°27.166 2°59.784 -999 -999 -999 -999 -999
2009-08-10 09:16:20 51°27.164 2°59.781 -999 -999 -999 -999 -999
2009-08-10 09:16:30 51°27.162 2°59.778 -999 -999 -999 -999 -999
2009-08-10 09:16:40 51°27.161 2°59.775 -999 -999 -999 -999 -999
2009-08-10 09:16:50 51°27.159 2°59.772 -999 -999 -999 -999 -999
2009-08-10 09:17:00 51°27.157 2°59.77 -999 -999 -999 -999 -999
2009-08-10 09:17:10 51°27.155 2°59.767 -999 -999 -999 -999 -999
2009-08-10 09:17:20 51°27.153 2°59.764 -999 -999 -999 -999 -999
2009-08-10 09:17:30 51°27.152 2°59.761 -999 -999 -999 -999 -999
2009-08-10 09:17:40 51°27.15 2°59.759 -999 -999 -999 -999 -999
2009-08-10 09:17:50 51°27.148 2°59.756 -999 -999 -999 -999 -999
2009-08-10 09:18:00 51°27.146 2°59.753 -999 -999 -999 -999 -999
2009-08-10 09:18:10 51°27.145 2°59.75 -999 -999 -999 -999 -999
2009-08-10 09:18:20 51°27.143 2°59.747 -999 -999 -999 -999 -999
2009-08-10 09:18:30 51°27.141 2°59.745 -999 -999 -999 -999 -999
2009-08-10 09:18:40 51°27.139 2°59.742 -999 -999 -999 -999 -999
2009-08-10 09:18:50 51°27.137 2°59.739 -999 -999 -999 -999 -999
2009-08-10 09:19:00 51°27.135 2°59.736 -999 -999 -999 -999 -999
2009-08-10 09:19:10 51°27.133 2°59.734 -999 -999 -999 -999 -999
2009-08-10 09:19:20 51°27.131 2°59.731 -999 -999 -999 -999 -999
2009-08-10 09:19:30 51°27.129 2°59.728 -999 -999 -999 -999 -999
2009-08-10 09:19:40 51°27.127 2°59.725 -999 -999 -999 -999 -999
2009-08-10 09:19:50 51°27.126 2°59.722 -999 -999 -999 -999 -999
2009-08-10 09:20:00 51°27.124 2°59.719 -999 -999 -999 -999 -999
2009-08-10 09:20:10 51°27.122 2°59.716 -999 -999 -999 -999 -999
2009-08-10 09:20:20 51°27.12 2°59.713 -999 -999 -999 -999 -999
2009-08-10 09:20:30 51°27.118 2°59.71 -999 -999 -999 -999 -999
2009-08-10 09:20:40 51°27.116 2°59.707 -999 -999 -999 -999 -999
2009-08-10 09:20:50 51°27.114 2°59.704 -999 -999 -999 -999 -999
2009-08-10 09:21:00 51°27.113 2°59.701 -999 -999 -999 -999 -999
2009-08-10 09:21:10 51°27.111 2°59.698 -999 -999 -999 -999 -999
2009-08-10 09:21:20 51°27.109 2°59.696 -999 -999 -999 -999 -999
2009-08-10 09:21:30 51°27.107 2°59.693 -999 -999 -999 -999 -999
2009-08-10 09:21:40 51°27.105 2°59.69 -999 -999 -999 -999 -999
2009-08-10 09:21:50 51°27.103 2°59.687 -999 -999 -999 -999 -999
2009-08-10 09:22:00 51°27.101 2°59.684 -999 -999 -999 -999 -999
2009-08-10 09:22:10 51°27.099 2°59.681 -999 -999 -999 -999 -999
2009-08-10 09:22:20 51°27.097 2°59.678 -999 -999 -999 -999 -999
2009-08-10 09:22:30 51°27.095 2°59.674 -999 -999 -999 -999 -999
2009-08-10 09:22:40 51°27.093 2°59.671 -999 -999 -999 -999 -999
2009-08-10 09:22:50 51°27.092 2°59.668 -999 -999 -999 -999 -999
2009-08-10 09:23:00 51°27.09 2°59.665 -999 -999 -999 -999 -999
2009-08-10 09:23:10 51°27.088 2°59.662 -999 -999 -999 -999 -999
2009-08-10 09:23:20 51°27.086 2°59.659 -999 -999 -999 -999 -999
2009-08-10 09:23:30 51°27.084 2°59.655 -999 -999 -999 -999 -999
2009-08-10 09:23:40 51°27.082 2°59.652 -999 -999 -999 -999 -999
2009-08-10 09:23:50 51°27.08 2°59.649 -999 -999 -999 -999 -999
2009-08-10 09:24:00 51°27.078 2°59.646 -999 -999 -999 -999 -999
2009-08-10 09:24:10 51°27.076 2°59.642 -999 -999 -999 -999 -999
2009-08-10 09:24:20 51°27.074 2°59.639 -999 -999 -999 -999 -999
2009-08-10 09:24:30 51°27.072 2°59.636 -999 -999 -999 -999 -999
2009-08-10 09:24:40 51°27.071 2°59.632 -999 -999 -999 -999 -999
2009-08-10 09:24:50 51°27.069 2°59.629 -999 -999 -999 -999 -999
2009-08-10 09:25:00 51°27.067 2°59.625 -999 -999 -999 -999 -999
2009-08-10 09:25:10 51°27.066 2°59.622 -999 -999 -999 -999 -999
2009-08-10 09:25:20 51°27.063 2°59.618 -999 -999 -999 -999 -999
2009-08-10 09:25:30 51°27.062 2°59.614 -999 -999 -999 -999 -999
2009-08-10 09:25:40 51°27.06 2°59.61 -999 -999 -999 -999 -999
2009-08-10 09:25:50 51°27.059 2°59.606 -999 -999 -999 -999 -999
2009-08-10 09:26:00 51°27.057 2°59.6 -999 -999 -999 -999 -999
2009-08-10 09:26:10 51°27.056 2°59.592 -999 -999 -999 -999 -999
2009-08-10 09:26:20 51°27.055 2°59.584 -999 -999 -999 -999 -999
2009-08-10 09:26:30 51°27.054 2°59.576 -999 -999 -999 -999 -999
2009-08-10 09:26:40 51°27.052 2°59.567 -999 -999 -999 -999 -999
2009-08-10 09:26:50 51°27.05 2°59.559 -999 -999 -999 -999 -999
2009-08-10 09:27:00 51°27.048 2°59.551 -999 -999 -999 -999 -999
2009-08-10 09:27:10 51°27.046 2°59.545 -999 -999 -999 -999 -999
2009-08-10 09:27:20 51°27.044 2°59.54 -999 -999 -999 -999 -999
2009-08-10 09:27:30 51°27.042 2°59.536 -999 -999 -999 -999 -999
2009-08-10 09:27:40 51°27.04 2°59.533 -999 -999 -999 -999 -999
2009-08-10 09:27:50 51°27.038 2°59.531 -999 -999 -999 -999 -999
2009-08-10 09:28:00 51°27.037 2°59.531 -999 -999 -999 -999 -999
2009-08-10 09:28:10 51°27.036 2°59.532 -999 -999 -999 -999 -999
2009-08-10 09:28:20 51°27.037 2°59.535 -999 -999 -999 -999 -999
2009-08-10 09:28:30 51°27.038 2°59.539 -999 -999 -999 -999 -999
2009-08-10 09:28:40 51°27.04 2°59.545 -999 -999 -999 -999 -999
2009-08-10 09:28:50 51°27.043 2°59.551 -999 -999 -999 -999 -999
2009-08-10 09:29:00 51°27.046 2°59.559 -999 -999 -999 -999 -999
2009-08-10 09:29:10 51°27.051 2°59.566 -999 -999 -999 -999 -999
2009-08-10 09:29:20 51°27.055 2°59.574 -999 -999 -999 -999 -999
2009-08-10 09:29:30 51°27.06 2°59.583 -999 -999 -999 -999 -999
2009-08-10 09:29:40 51°27.065 2°59.592 -999 -999 -999 -999 -999
2009-08-10 09:29:50 51°27.071 2°59.6 -999 -999 -999 -999 -999
2009-08-10 09:30:00 51°27.076 2°59.609 -999 -999 -999 -999 -999
2009-08-10 09:30:10 51°27.081 2°59.617 -999 -999 -999 -999 -999
2009-08-10 09:30:20 51°27.086 2°59.625 -999 -999 -999 -999 -999
2009-08-10 09:30:30 51°27.091 2°59.632 -999 -999 -999 -999 -999
2009-08-10 09:30:40 51°27.095 2°59.639 -999 -999 -999 -999 -999
2009-08-10 09:30:50 51°27.099 2°59.646 -999 -999 -999 -999 -999
2009-08-10 09:31:00 51°27.103 2°59.652 -999 -999 -999 -999 -999
2009-08-10 09:31:10 51°27.106 2°59.657 -999 -999 -999 -999 -999
2009-08-10 09:31:20 51°27.109 2°59.662 -999 -999 -999 -999 -999
2009-08-10 09:31:30 51°27.112 2°59.667 -999 -999 -999 -999 -999
2009-08-10 09:31:40 51°27.114 2°59.672 -999 -999 -999 -999 -999
2009-08-10 09:31:50 51°27.117 2°59.676 -999 -999 -999 -999 -999
2009-08-10 09:32:00 51°27.119 2°59.68 -999 -999 -999 -999 -999
2009-08-10 09:32:10 51°27.121 2°59.684 -999 -999 -999 -999 -999
2009-08-10 09:32:20 51°27.123 2°59.686 -999 -999 -999 -999 -999
2009-08-10 09:32:30 51°27.124 2°59.688 -999 -999 -999 -999 -999
2009-08-10 09:32:40 51°27.124 2°59.69 -999 -999 -999 -999 -999
2009-08-10 09:32:50 51°27.124 2°59.691 -999 -999 -999 -999 -999
2009-08-10 09:33:00 51°27.124 2°59.692 -999 -999 -999 -999 -999
2009-08-10 09:33:10 51°27.124 2°59.693 -999 -999 -999 -999 -999
2009-08-10 09:33:20 51°27.123 2°59.694 -999 -999 -999 -999 -999
2009-08-10 09:33:30 51°27.123 2°59.695 -999 -999 -999 -999 -999
2009-08-10 09:33:40 51°27.122 2°59.696 -999 -999 -999 -999 -999
2009-08-10 09:33:50 51°27.121 2°59.697 -999 -999 -999 -999 -999
2009-08-10 09:34:00 51°27.12 2°59.698 -999 -999 -999 -999 -999
2009-08-10 09:34:10 51°27.118 2°59.699 -999 -999 -999 -999 -999
2009-08-10 09:34:20 51°27.117 2°59.7 -999 -999 -999 -999 -999
2009-08-10 09:34:30 51°27.115 2°59.7 -999 -999 -999 -999 -999
2009-08-10 09:34:40 51°27.113 2°59.7 -999 -999 -999 -999 -999
2009-08-10 09:34:50 51°27.111 2°59.701 -999 -999 -999 -999 -999
2009-08-10 09:35:00 51°27.109 2°59.701 -999 -999 -999 -999 -999
2009-08-10 09:35:10 51°27.106 2°59.701 -999 -999 -999 -999 -999
2009-08-10 09:35:20 51°27.104 2°59.701 -999 -999 -999 -999 -999
2009-08-10 09:35:30 51°27.102 2°59.701 -999 -999 -999 -999 -999
2009-08-10 09:35:40 51°27.1 2°59.7 -999 -999 -999 -999 -999
2009-08-10 09:35:50 51°27.097 2°59.7 -999 -999 -999 -999 -999
2009-08-10 09:36:00 51°27.094 2°59.699 -999 -999 -999 -999 -999
2009-08-10 09:36:10 51°27.092 2°59.699 -999 -999 -999 -999 -999
2009-08-10 09:36:20 51°27.089 2°59.698 -999 -999 -999 -999 -999
2009-08-10 09:36:30 51°27.087 2°59.697 -999 -999 -999 -999 -999
2009-08-10 09:36:40 51°27.084 2°59.696 -999 -999 -999 -999 -999
2009-08-10 09:36:50 51°27.081 2°59.695 -999 -999 -999 -999 -999
2009-08-10 09:37:00 51°27.078 2°59.694 -999 -999 -999 -999 -999
2009-08-10 09:37:10 51°27.075 2°59.692 -999 -999 -999 -999 -999
2009-08-10 09:37:20 51°27.072 2°59.691 -999 -999 -999 -999 -999
2009-08-10 09:37:30 51°27.069 2°59.689 -999 -999 -999 -999 -999
2009-08-10 09:37:40 51°27.066 2°59.688 -999 -999 -999 -999 -999
2009-08-10 09:37:50 51°27.063 2°59.686 -999 -999 -999 -999 -999
2009-08-10 09:38:00 51°27.06 2°59.685 -999 -999 -999 -999 -999
2009-08-10 09:38:10 51°27.057 2°59.683 -999 -999 -999 -999 -999
2009-08-10 09:38:20 51°27.054 2°59.681 -999 -999 -999 -999 -999
2009-08-10 09:38:30 51°27.051 2°59.679 -999 -999 -999 -999 -999
2009-08-10 09:38:40 51°27.048 2°59.677 -999 -999 -999 -999 -999
2009-08-10 09:38:50 51°27.045 2°59.675 -999 -999 -999 -999 -999
2009-08-10 09:39:00 51°27.041 2°59.674 -999 -999 -999 -999 -999
2009-08-10 09:39:10 51°27.038 2°59.673 -999 -999 -999 -999 -999
2009-08-10 09:39:20 51°27.034 2°59.674 -999 -999 -999 -999 -999
2009-08-10 09:39:30 51°27.03 2°59.674 -999 -999 -999 -999 -999
2009-08-10 09:39:40 51°27.026 2°59.676 -999 -999 -999 -999 -999
2009-08-10 09:39:50 51°27.023 2°59.677 -999 -999 -999 -999 -999
2009-08-10 09:40:00 51°27.021 2°59.679 -999 -999 -999 -999 -999
2009-08-10 09:40:10 51°27.019 2°59.682 -999 -999 -999 -999 -999
2009-08-10 09:40:20 51°27.018 2°59.685 -999 -999 -999 -999 -999
2009-08-10 09:40:30 51°27.017 2°59.688 -999 -999 -999 -999 -999
2009-08-10 09:40:40 51°27.017 2°59.692 -999 -999 -999 -999 -999
2009-08-10 09:40:50 51°27.018 2°59.696 -999 -999 -999 -999 -999
2009-08-10 09:41:00 51°27.02 2°59.699 -999 -999 -999 -999 -999
2009-08-10 09:41:10 51°27.023 2°59.703 -999 -999 -999 -999 -999
2009-08-10 09:41:20 51°27.027 2°59.705 -999 -999 -999 -999 -999
2009-08-10 09:41:30 51°27.032 2°59.707 -999 -999 -999 -999 -999
2009-08-10 09:41:40 51°27.037 2°59.708 -999 -999 -999 -999 -999
2009-08-10 09:41:50 51°27.043 2°59.708 -999 -999 -999 -999 -999
2009-08-10 09:42:00 51°27.049 2°59.708 -999 -999 -999 -999 -999
2009-08-10 09:42:10 51°27.055 2°59.708 -999 -999 -999 -999 -999
2009-08-10 09:42:20 51°27.062 2°59.709 -999 -999 -999 -999 -999
2009-08-10 09:42:30 51°27.069 2°59.711 -999 -999 -999 -999 -999
2009-08-10 09:42:40 51°27.075 2°59.715 -999 -999 -999 -999 -999
2009-08-10 09:42:50 51°27.081 2°59.72 -999 -999 -999 -999 -999
2009-08-10 09:43:00 51°27.086 2°59.726 -999 -999 -999 -999 -999
2009-08-10 09:43:10 51°27.092 2°59.732 -999 -999 -999 -999 -999
2009-08-10 09:43:20 51°27.097 2°59.739 -999 -999 -999 -999 -999
2009-08-10 09:43:30 51°27.103 2°59.744 -999 -999 -999 -999 -999
2009-08-10 09:43:40 51°27.109 2°59.749 -999 -999 -999 -999 -999
2009-08-10 09:43:50 51°27.116 2°59.754 -999 -999 -999 -999 -999
2009-08-10 09:44:00 51°27.123 2°59.759 -999 -999 -999 -999 -999
2009-08-10 09:44:10 51°27.13 2°59.763 -999 -999 -999 -999 -999
2009-08-10 09:44:20 51°27.138 2°59.769 -999 -999 -999 -999 -999
2009-08-10 09:44:30 51°27.146 2°59.775 -999 -999 -999 -999 -999
2009-08-10 09:44:40 51°27.153 2°59.781 -999 -999 -999 -999 -999
2009-08-10 09:44:50 51°27.161 2°59.788 -999 -999 -999 -999 -999
2009-08-10 09:45:00 51°27.168 2°59.796 -999 -999 -999 -999 -999
2009-08-10 09:45:10 51°27.174 2°59.804 -999 -999 -999 -999 -999
2009-08-10 09:45:20 51°27.181 2°59.812 -999 -999 -999 -999 -999
2009-08-10 09:45:30 51°27.189 2°59.819 -999 -999 -999 -999 -999
2009-08-10 09:45:40 51°27.196 2°59.825 -999 -999 -999 -999 -999
2009-08-10 09:45:50 51°27.204 2°59.831 -999 -999 -999 -999 -999
2009-08-10 09:46:00 51°27.211 2°59.837 -999 -999 -999 -999 -999
2009-08-10 09:46:10 51°27.219 2°59.842 -999 -999 -999 -999 -999
2009-08-10 09:46:20 51°27.227 2°59.847 -999 -999 -999 -999 -999
2009-08-10 09:46:30 51°27.233 2°59.854 -999 -999 -999 -999 -999
2009-08-10 09:46:40 51°27.239 2°59.861 -999 -999 -999 -999 -999
2009-08-10 09:46:50 51°27.245 2°59.869 -999 -999 -999 -999 -999
2009-08-10 09:47:00 51°27.249 2°59.877 -999 -999 -999 -999 -999
2009-08-10 09:47:10 51°27.254 2°59.884 -999 -999 -999 -999 -999
2009-08-10 09:47:20 51°27.258 2°59.889 -999 -999 -999 -999 -999
2009-08-10 09:47:30 51°27.261 2°59.894 -999 -999 -999 -999 -999
2009-08-10 09:47:40 51°27.265 2°59.897 -999 -999 -999 -999 -999
2009-08-10 09:47:50 51°27.269 2°59.899 -999 -999 -999 -999 -999
2009-08-10 09:48:00 51°27.272 2°59.901 -999 -999 -999 -999 -999
2009-08-10 09:48:10 51°27.275 2°59.903 -999 -999 -999 -999 -999
2009-08-10 09:48:20 51°27.277 2°59.904 -999 -999 -999 -999 -999
2009-08-10 09:48:30 51°27.279 2°59.906 -999 -999 -999 -999 -999
2009-08-10 09:48:40 51°27.28 2°59.907 -999 -999 -999 -999 -999
2009-08-10 09:48:50 51°27.281 2°59.909 -999 -999 -999 -999 -999
2009-08-10 09:49:00 51°27.282 2°59.91 -999 -999 -999 -999 -999
2009-08-10 09:49:10 51°27.283 2°59.912 -999 -999 -999 -999 -999
2009-08-10 09:49:20 51°27.283 2°59.914 -999 -999 -999 -999 -999
2009-08-10 09:49:30 51°27.282 2°59.916 -999 -999 -999 -999 -999
2009-08-10 09:49:40 51°27.282 2°59.918 -999 -999 -999 -999 -999
2009-08-10 09:49:50 51°27.282 2°59.92 -999 -999 -999 -999 -999
2009-08-10 09:50:00 51°27.282 2°59.923 -999 -999 -999 -999 -999